Lid_Strength_Index
-1 0 1 3 7 7 10 10 8 8 8 6 5 6 7 6 8 10 1 0 -0 0 -1 -1 -1 -1 -1 -1 -1 -1 -1 -1 -1 -1 -1 -1 -1 -1 -1 -1 -1 -1 -1 -1 -1 -1 -1 -1 -1
1 1 3 6 8 10 9 8 9 8 7 5 5 5 6 7 4 4 3 0 -0 -0 -1 -1 -1 -1 -1 -1 -1 -1 -1 -1 -1 -1 -1 -1 -1 -1 -1 -1 -1 -1 -1 -1 -1 -1 -1 -1 -1
2 4 6 6 8 10 10 7 7 7 5 6 6 4 5 6 4 3 1 0 -0 -0 -1 -1 -1 -1 -1 -1 -1 -1 -1 -1 -1 -1 -1 -1 -1 -1 -1 -1 -1 -1 -1 -1 -1 -1 -1 -1 -1
4 5 5 7 9 8 8 7 6 6 5 5 5 7 4 2 3 2 0 -0 -0 -0 -1 -1 -1 -1 -1 -1 -1 -1 -1 -1 -1 -1 -1 -1 -1 -1 -1 -1 -1 -1 -1 -1 -1 -1 -1 -1 -1
5 5 7 9 9 7 6 6 6 7 6 6 5 7 6 3 1 1 0 0 0 -0 -1 -1 -1 -1 -1 -1 -1 -1 -1 -1 -1 -1 -1 -1 -1 -1 -1 -1 -1 -1 -1 -1 -1 -1 -1 -1 -1
6 6 8 10 9 7 6 5 6 7 6 6 6 6 5 2 2 1 0 0 -0 0 -1 -1 -1 -1 -1 -1 -1 -1 -1 -1 -1 -1 -1 -1 -1 -1 -1 -1 -1 -1 -1 -1 -1 -1 -1 -1 -1
6 6 8 9 9 8 6 4 7 6 7 6 4 7 5 3 2 1 0 0 -0 -0 -0 -1 -1 -1 -1 -1 -1 -1 -1 -1 -1 -1 -1 -1 -1 -1 -1 -1 -1 -1 -1 -1 -1 -1 -1 -1 -1
5 5 9 8 9 9 5 5 6 5 6 4 4 7 7 3 2 1 0 1 0 0 -0 -0 -1 -1 -1 -1 -1 -1 -1 -1 -1 -1 -1 -1 -1 -1 -1 -1 -1 -1 -1 -1 -1 -1 -1 -1 -1
5 7 9 9 9 7 5 6 6 4 5 5 4 4 3 2 2 2 2 1 1 1 0 -0 -0 -1 -1 -1 -1 -1 -1 -1 -1 -1 -1 -1 -1 -1 -1 -2 -1 -1 -1 -1 -1 -1 -1 -1 -1
5 7 8 6 6 6 6 5 5 6 6 6 5 3 2 2 2 4 3 3 2 2 1 -0 -0 -0 -1 -1 -1 -1 -1 -1 -1 -1 -1 -1 -1 -1 -1 -1 -1 -1 -1 -1 -1 -1 -1 -1 -1
6 7 6 6 5 5 6 5 5 6 6 5 5 4 3 3 3 3 3 2 2 1 1 0 -0 -1 -1 -1 -1 -1 -1 -1 -1 -1 -1 -1 -1 -1 -1 -1 -1 -1 -1 -1 -1 -1 -1 -1 -2
6 6 5 5 5 5 6 5 5 5 5 4 4 6 4 4 4 3 3 2 2 1 1 0 -0 -0 -1 -1 -1 -1 -1 -1 -1 -1 -1 -1 -1 -1 -1 -1 -1 -1 -1 -1 -1 -1 -2 -1 -1
6 6 5 5 6 6 4 5 5 5 3 3 3 4 5 3 3 3 2 2 2 2 1 1 -0 -0 -0 -1 -1 -1 -0 -1 -1 -1 -1 -1 -1 -1 -1 -1 -1 -1 -1 -1 -1 -1 -1 1 1
5 5 5 6 6 7 6 5 5 4 3 3 3 4 4 5 3 2 3 2 2 1 1 0 -0 -0 -1 -0 -0 -0 -1 -1 -1 -1 -1 -1 -1 -1 -1 -1 -1 -1 -1 -1 -1 -0 2 2 2
6 7 7 7 7 7 6 7 7 4 3 4 4 3 4 3 3 3 2 2 2 1 1 0 0 -0 -0 -0 -0 -1 -1 -1 -1 -1 -1 -1 -1 -1 -1 -0 -1 -1 -1 -0 0 2 1 2 2
7 7 8 7 7 7 5 8 6 4 5 4 4 3 5 4 3 3 2 2 1 1 1 0 0 -0 -0 -0 -0 -1 -1 -1 -1 -1 -1 -1 -1 -1 -1 -1 0 -1 -1 0 1 1 2 2 3
8 9 9 8 6 7 7 8 6 5 5 4 4 5 5 5 4 3 2 2 2 1 1 1 0 0 -0 -0 -0 -1 -1 -1 -1 -1 -1 -1 -1 -1 -1 -0 1 -0 0 0 1 1 0 2 3
10 10 9 9 7 7 8 8 7 5 6 5 6 6 5 5 4 5 5 5 4 3 2 2 2 2 0 -0 -0 -0 -0 -0 -1 -1 -1 -1 -1 -0 -0 0 0 0 1 1 2 2 2 2 3
9 10 10 9 8 8 8 9 9 7 6 7 7 6 6 5 5 4 5 5 5 5 5 4 3 2 1 0 1 1 1 0 -0 -0 -0 -1 -1 0 -0 0 0 1 2 1 1 1 1 2 2
9 10 10 9 8 7 9 10 8 8 8 7 7 6 6 5 7 7 7 7 7 6 6 5 4 3 2 1 0 0 0 1 0 -0 -0 -0 -0 -0 0 0 0 0 1 1 1 1 2 2 1
9 9 9 9 8 8 8 11 10 8 7 6 6 5 6 7 7 7 6 7 6 6 5 4 4 2 2 1 1 -0 -0 -0 0 0 -0 -0 0 -0 -0 0 1 0 0 1 0 0 1 2 1
9 8 8 9 9 11 9 14 12 10 10 10 9 8 7 7 7 7 7 7 7 6 5 5 4 4 3 1 1 1 1 2 1 1 0 -0 -1 -1 -1 -0 -0 -0 0 -0 0 -0 -0 0 2
9 8 9 9 9 10 10 12 12 10 12 13 11 9 9 8 8 8 8 7 7 7 6 6 5 5 4 4 3 3 3 2 0 0 0 -0 -1 -1 -1 -1 -1 -1 -0 -1 -1 -0 -0 0 1
8 8 9 9 9 12 12 12 14 12 12 13 12 11 9 8 8 8 8 8 8 7 7 6 6 5 5 5 5 5 4 4 3 2 1 1 0 -0 -1 -1 -1 -1 -1 -0 -0 -1 -0 -0 0
8 9 12 13 12 14 11 12 13 12 11 12 12 12 11 10 10 9 9 9 8 8 7 7 7 7 6 5 5 6 5 5 4 4 3 3 1 0 -0 -1 -1 -0 -1 -1 -1 -0 -0 -0 0
9 9 11 15 14 14 11 15 12 11 11 11 11 11 11 10 10 10 9 9 9 8 8 8 8 7 7 7 6 6 6 6 5 5 5 4 2 1 0 -0 -1 -1 -1 -1 -1 -0 -0 -1 0
9 9 8 11 11 13 13 12 10 10 11 11 11 10 10 10 9 9 9 9 9 8 8 8 8 7 7 7 7 6 6 5 6 4 4 4 3 3 2 1 -0 -1 -1 -1 -0 1 0 0 0
8 8 11 10 15 16 14 14 12 11 11 10 10 10 9 9 9 9 9 9 8 8 7 6 6 6 6 6 5 5 5 5 5 5 5 4 3 3 2 2 2 0 -0 -0 0 1 0 0 1
8 9 10 10 11 14 15 13 9 9 9 10 10 9 8 8 8 8 8 7 6 6 5 5 6 6 7 6 6 6 6 6 6 6 6 5 4 4 4 4 3 2 1 -0 0 0 1 1 1
8 9 10 12 14 12 13 13 8 8 9 9 9 8 8 7 8 7 7 6 6 6 6 7 7 7 6 6 6 6 6 6 7 7 7 5 5 5 4 3 3 3 2 1 0 0 1 2 1